Location: Trois-Rivi�res
(46.3500°N, 72.5500°W)
Time: 08:13:03
(UTC-05:00)

Daily predictions for brighter satellites

Satellite Brightness Start Highest point End
(mag) Time Altitude Azimuth Time Altitude Azimuth Time Altitude Azimuth
MSX 3.9 16:26:15 10° SSE 16:32:02 82° ENE 16:37:50 10° NNW
NOSS 3-1 (C) 4.2 16:28:41 10° WSW 16:34:23 49° NW 16:40:53 10° NE
Cosmos 1975 3.5 16:31:01 10° N 16:34:42 33° ENE 16:38:22 10° SE
ATLAS CENTAUR R/B 3.8 16:33:32 10° WNW 16:37:01 29° WSW 16:40:39 10° S
Cosmos 1300 Rocket 4.3 16:34:37 10° NNW 16:38:57 58° W 16:43:17 10° S
Meteor 1-4 Rocket 2.7 16:37:01 10° NNW 16:40:43 82° W 16:44:20 10° S
Cosmos 1484 Rocket 3.3 16:37:39 10° SE 16:41:24 40° ENE 16:45:12 10° N
YAOGAN 1 3.7 16:38:51 10° ESE 16:42:15 23° ENE 16:45:40 10° NNE
ISS -3.5 16:39:50 10° WNW 16:43:04 50° NNE 16:46:17 10° E
Cosmos 2279 Rocket 4.5 16:37:47 10° SSE 16:43:32 40° E 16:49:19 10° NNE
Cosmos 2297 Rocket 3.1 16:39:17 10° N 16:44:02 27° NE 16:48:45 10° ESE
Abrixas rocket 3.3 16:42:51 10° SW 16:45:49 33° SSE 16:48:47 10° E
ERS-2 3.8 16:45:35 10° E 16:47:31 14° ENE 16:49:29 10° NNE
Cosmos 1943 Rocket 3.2 16:43:28 10° SW 16:48:50 44° NW 16:54:16 10° NNE
CZ-4 R/B 2.0 16:46:01 10° SE 16:49:28 32° ENE 16:53:02 10° N
Meteor 1-18 Rocket 4.3 16:44:28 10° S 16:49:56 61° E 16:55:31 10° NNE
COSMO-SKYMED 1 4.2 16:50:21 10° NE 16:53:03 16° E 16:55:44 10° SE
ATLAS 2AS CENTAUR R/B 3.5 16:48:45 10° S 16:56:01 46° ESE 17:03:38 10° NE
Cosmos 1812 3.3 16:54:01 10° SSW 16:57:50 60° W 17:01:42 10° N
SJ-12 4.3 16:54:40 10° S 16:58:46 71° WSW 17:02:54 10° NNW
NOSS 2-3 (E) 3.9 16:54:30 10° SSW 16:59:09 74° SE 17:04:41 10° NE
Cosmos 2150 Rocket 4.4 16:53:56 10° S 16:59:11 50° ESE 17:04:27 10° NNE
Cosmos 1666 3.3 16:57:40 10° N 17:01:08 34° ENE 17:04:34 10° SE
ATLAS 3B R/B 2.8 16:54:49 10° NNW 17:01:24 52° NE 17:07:45 10° ESE
Cosmos 1975 Rocket 3.1 17:00:54 10° S 17:05:19 66° E 17:09:48 10° NNE
SJ-7 4.3 17:01:32 10° SSE 17:05:32 81° ENE 17:09:32 10° N
IRAS Rocket 4.3 17:02:18 10° SSE 17:07:47 88° WSW 17:13:18 10° NNW
Okean 1 Rocket 4.4 17:05:26 10° NNW 17:09:43 44° W 17:13:58 10° SSW
SJ 16-02 2.9 17:07:26 10° SE 17:10:03 16° E 17:10:58 15° E
BREEZE-M DEB (TANK) 2.4 17:08:53 10° W 17:11:03 60° N 17:13:51 16° ENE
NOSS 3-1 (A) 4.4 17:06:19 10° WSW 17:11:56 41° NW 17:18:20 10° NNE
USA 215 4.1 17:06:30 10° SSE 17:12:51 54° SW 17:19:16 10° WNW
SPOT 3 Rocket 4.3 17:08:39 10° ESE 17:13:07 30° ENE 17:17:36 10° N
Cosmos 158 Rocket 4.3 17:09:11 10° N 17:14:01 40° ENE 17:18:43 10° SE
CSL-04 Debris 4.2 17:10:12 10° SSE 17:15:35 87° WSW 17:21:02 10° NNW
Cosmos 1634 Rocket 4.3 17:12:17 10° SSW 17:18:27 71° W 17:24:44 10° N
Meteor 1-19 Rocket 4.4 17:15:07 10° SSE 17:20:33 50° E 17:26:08 10° NNE
USA 161 3.7 17:18:27 10° NNW 17:20:50 25° WNW 17:23:18 10° SW
Cosmos 1655 Rocket 4.1 17:20:23 10° N 17:26:47 88° W 17:33:12 10° S
Cosmos 1536 Rocket 3.9 17:29:25 10° SSE 17:33:30 41° E 17:36:25 17° NNE
EO 1 Del DPAF 4.1 17:32:41 26° ENE 17:33:33 29° E 17:36:54 10° SSE
Meteor 1-28 Rocket 3.1 17:30:39 10° NNE 17:34:25 90° ESE 17:38:11 10° SSW
NOSS 2-3 (C) 4.3 17:30:06 10° SW 17:34:49 64° NW 17:39:23 16° NNE
MOS 1 4.3 17:31:55 10° SSE 17:37:31 61° ENE 17:43:07 10° N
Cosmos 2369 Rocket 4.5 17:35:16 10° WNW 17:38:41 16° NW 17:42:07 10° N
Cosmos 1743 2.9 17:35:19 10° NNW 17:39:11 72° W 17:43:02 10° S
Cosmos 1898 Rocket 4.4 17:34:30 10° SW 17:39:33 49° WNW 17:44:40 10° NNE
Cosmos 1269 Rocket 4.3 17:34:48 10° N 17:39:51 43° ENE 17:44:53 10° SE
FENGYUN 3A 3.8 17:35:17 10° SE 17:40:26 49° ENE 17:45:36 10° N
Ariane Rocket 3.8 17:36:07 10° S 17:41:04 54° W 17:46:02 10° NNW
SKYMED 2 3.8 17:38:35 19° NNE 17:41:30 47° E 17:45:41 10° S
Cosmos 2266 Rocket 3.9 17:35:37 10° N 17:41:37 60° ENE 17:47:40 10° SSE
Cosmos 1818 4.4 17:36:34 10° WSW 17:41:46 45° NW 17:46:17 14° NNE
Cosmos 389 Rocket 3.5 17:39:58 10° NNW 17:43:23 48° W 17:46:43 10° S
CENTAUR R/B 3.7 17:37:23 10° NNW 17:44:03 33° NNE 17:47:34 24° ENE
Cosmos 1697 Rocket 3.8 17:39:51 10° SSE 17:44:11 23° ESE 17:44:23 23° E
CZ-2C R/B 3.7 17:40:30 10° NNE 17:45:11 85° ESE 17:49:55 10° SSW
Cosmos 2082 3.6 17:41:30 10° NNW 17:47:07 64° ENE 17:52:41 10° SE
METEOR-M 4.1 17:43:46 10° SSE 17:49:07 89° ENE 17:54:30 10° NNW
NOAA 12 4.1 17:44:44 10° SSE 17:49:53 57° ENE 17:55:03 10° N
Cosmos 1125 Rocket 3.8 17:46:06 10° S 17:51:07 45° ESE 17:53:17 29° NE
SMAP 4.4 17:47:17 10° S 17:51:41 41° W 17:56:06 10° NNW
IRS-1A Rocket 4.5 17:46:21 10° S 17:51:56 72° WSW 17:57:30 10° NNW
Cosmos 1937 Rocket 4.3 17:49:12 10° SW 17:54:13 50° WNW 17:59:15 10° NNE
Atlas Centaur 2 4.3 17:54:43 10° SSW 17:55:35 10° S 17:56:26 10° S
Cosmos 724 4.1 17:50:14 10° NNW 17:56:03 71° NE 18:01:51 10° SE
Cosmos 1048 Rocket 3.9 17:52:39 10° NNW 17:58:04 71° ENE 18:03:25 10° SSE
Landsat 4 3.6 17:58:14 25° NNE 18:00:24 88° WNW 18:04:12 10° SSW
Cosmos 2227 Rocket 2.2 17:55:39 10° NNW 18:01:22 82° WSW 18:07:00 10° SSE
USA 238 DEB 3.9 17:54:20 10° NW 18:01:27 78° SW 18:08:37 10° SSE
USA 238 3.9 17:54:26 10° NW 18:01:33 79° SW 18:08:44 10° SSE
Meteor 1-23 Rocket 4.3 17:57:11 10° S 18:02:46 54° E 18:06:17 22° NNE
ALOS 2.1 17:58:14 10° SSE 18:02:53 77° ENE 18:07:34 10° N
MINOTAUR IV R/B 4.5 17:58:54 10° NNW 18:03:25 65° ENE 18:05:57 25° SE
DELTA 2 R/B (1) 4.4 17:58:58 10° WSW 18:04:09 41° S 18:06:33 27° SE
Cosmos 1271 Rocket 4.3 18:03:18 10° NNW 18:06:47 35° W 18:10:17 10° SSW
Cosmos 1455 Rocket 4.2 18:04:32 10° NNW 18:08:47 45° W 18:12:59 10° SSW
Meteor 2-9 Rocket 4.4 18:06:18 10° NNW 18:11:52 72° W 18:17:14 10° S
YAOGAN 1 4.0 18:14:06 10° SSW 18:18:09 39° W 18:22:14 10° NNW
ISS -2.4 18:16:27 10° WNW 18:19:29 34° SW 18:19:54 32° SSW
ERS-2 2.9 18:17:13 10° S 18:20:48 51° W 18:24:24 10° NNW
Cosmos 372 Rocket 3.8 18:16:41 10° SSW 18:21:53 78° ESE 18:23:18 49° NE
BREEZE-M DEB (TANK) 3.7 18:19:06 10° WNW 18:22:05 81° SSW 18:23:32 46° ESE
Abrixas rocket 3.2 18:19:00 10° W 18:21:25 45° W 18:21:25 45° W
Cosmos 1980 Rocket 3.8 18:18:53 10° SSE 18:20:55 19° SE 18:20:55 19° SE
CZ-4 R/B 3.9 18:21:37 10° SW 18:24:36 21° W 18:27:40 10° NW
Gblst 52 Del rocket 4.2 18:19:31 10° WNW 18:25:11 74° NNE 18:26:35 53° E
Cosmos 2297 Rocket 2.7 18:22:55 10° NNW 18:28:30 60° WSW 18:34:02 10° S
COSMO-SKYMED 1 3.2 18:27:10 24° N 18:29:34 55° WNW 18:33:47 10° SSW
NOSS 3-2 (A) 4.0 18:24:49 10° NW 18:32:19 85° SW 18:40:02 12° SSE
NOSS 3-2 (C) 3.9 18:30:27 10° NW 18:37:57 85° NE 18:42:30 30° SE
Meteor 2-4 Rocket 4.4 18:37:06 10° SSW 18:42:23 50° WNW 18:46:53 14° N
ATLAS 2AS CENTAUR R/B 3.5 18:39:14 10° WSW 18:47:00 56° NW 18:51:14 29° NNE
SJ 16-02 1.9 18:43:51 10° SW 18:48:01 56° WNW 18:48:01 56° WNW
ATLAS 3B R/B 3.9 18:45:51 10° NW 18:51:55 38° WSW 18:57:50 10° S
Cosmos 1656 3.7 18:47:06 10° SSW 18:52:41 74° WNW 18:53:14 67° NNW
Meteor 2-11 Rocket 4.5 18:52:34 10° SSW 18:58:44 78° W 19:00:57 42° N
Cosmos 1241 Rocket 4.5 18:53:19 10° SSW 18:59:03 68° SSE 18:59:03 68° SSE
Cosmos 2369 4.2 18:54:54 10° SW 19:00:29 58° WNW 19:01:30 50° NNW
Cosmos 2278 4.1 18:56:41 10° SW 19:02:16 59° WNW 19:03:06 53° NNW
NOSS 3-4 (A) 3.7 19:01:29 10° SSW 19:06:29 58° S 19:06:29 58° S
NOSS 3-4 (C) 3.7 19:01:36 10° SSW 19:06:32 57° S 19:06:32 57° S
Cosmos 2263 Rocket 4.4 19:05:03 10° NNW 19:05:47 13° N 19:05:47 13° N
Gbstr 26 Del rocket 4.3 19:03:21 10° SW 19:10:44 67° SSE 19:10:44 67° SSE
Cosmos 1697 Rocket 3.6 19:22:06 10° SW 19:26:11 45° WSW 19:26:11 45° WSW
CENTAUR R/B 3.1 19:27:59 10° NW 19:34:47 71° NNW 19:34:47 71° NNW
